Location: Ferques
(50.8300°N, 1.7599°E)
Time: 21:57:49
(UTC+00:00)

Cosmos 1455 - Pass Details

Date: 19 May 2025
Orbit: 325 x 334 km, 82.5° (Epoch: 18 June)

Event Time Altitude Azimuth Distance (km) Brightness Sun altitude
Rises 23:46:17 0° 359° (N) 2,163 7.1 -19.2°
Reaches altitude 10° 23:48:28 10° 13° (NNE) 1,306 5.4 -19.2°
Maximum altitude 23:50:52 25° 73° (ENE) 741 3.1 -19.2°
Enters shadow 23:51:03 25° 79° (E) 744 3.1 -19.2°
